Location: Calvatone
(45.1167°N, 10.4333°E)
Time: 15:44:44
(UTC+00:00)

ARGOS - Pass Details

Date: 28 January 2023
Orbit: 820 x 834 km, 98.4° (Epoch: 30 March)

Event Time Altitude Azimuth Distance (km) Brightness Sun altitude
Rises 16:49:50 0° 174° (S) 3,337 6.5 -5.7°
Reaches altitude 10° 16:52:12 10° 177° (S) 2,409 5.8 -6.1°
Maximum altitude 16:57:29 63° 259° (W) 917 3.8 -7.0°
Drops below altitude 10° 17:02:49 10° 340° (NNW) 2,430 5.6 -7.9°
Sets 17:05:13 0° 344° (NNW) 3,369 6.3 -8.3°
